Preview of NWS' New Version of Forecast
This preview is not operational and should not be used for support decisions.

Regional Weather Roundup (RWR)

Issued by National Weather Service (NWS)

                            
000
ASUS43 KDMX 180506
RWRIA 

WEATHER ROUNDUP FOR IOWA
NATIONAL WEATHER SERVICE DES MOINES IA
1200 AM CDT WED SEP 18 2019

NOTE: "FAIR" INDICATES FEW OR NO CLOUDS BELOW 12,000 FEET WITH NO
SIGNIFICANT WEATHER AND/OR OBSTRUCTIONS TO VISIBILITY.

* - THESE STATIONS ARE NOT NWS STATIONS...THUS NOT UNDER NWS
QUALITY CONTROL.  THEY ALSO DO NOT REPORT WEATHER SUCH 
AS PRECIPITATION OR FOG.  

IAZ001>003-012>014-020>022-031>034-043>046-180600-
   NORTHWEST IOWA
  
CITY           SKY/WX    TMP DP  RH WIND       PRES   REMARKS
CARROLL *      PTCLDY    72  68  88 SE8       29.93F                  
CHEROKEE *     PTCLDY    74  70  87 S10       29.89S                  
DENISON *      PTCLDY    75  72  88 S13G24    29.93S                  
LE MARS *      CLEAR     77  70  78 S17       29.84F                  
SHELDON *        N/A     75  70  83 S13G21    29.85S                  
SIOUX CITY     CLEAR     76  68  76 SE14G23   29.86R                  
SPENCER        CLEAR     76  68  76 S15G24    29.89F                  
STORM LAKE *   CLEAR     73  70  88 S10       29.89S                  
$$
 
IAZ055>058-069>071-079>083-090>094-180600-
   SOUTHWEST IOWA
  
CITY           SKY/WX    TMP DP  RH WIND       PRES   REMARKS
ATLANTIC *     CLEAR     75  70  83 SE8       29.93F                  
AUDUBON *        N/A     72  66  83 SE3       29.96S                  
CLARINDA *     CLEAR     73  70  88 CALM      29.96S                  
COUNCIL BLFS * CLEAR     77  73  88 S13G18    29.90S                  
CRESTON *      CLEAR     72  70  94 SE9       29.97F                  
HARLAN  *      CLEAR     75  70  83 S9        29.92F                  
LAMONI         CLEAR     74  69  85 SE7       29.99R                  
RED OAK *      CLEAR     73  68  83 SE6       29.94S                  
SHENANDOAH *   CLEAR     73  70  88 SE7       29.92S                  
$$
 
IAZ047>049-059>061-072>074-084-180600-
   CENTRAL IOWA
  
CITY           SKY/WX    TMP DP  RH WIND       PRES   REMARKS
AMES           CLEAR     74  72  93 SE10      29.97S                  
ANKENY *       CLEAR     77  73  88 SE9G18    29.98S                  
BOONE *        CLEAR     73  73 100 SE8       29.96S                  
CHARITON *     CLEAR     75  75 100 SE10      29.99S                  
DES MOINES     MOCLDY    76  71  85 SE15      29.96S                  
GRINNELL*      CLEAR     72  67  86 SE12      30.03R                  
KNOXVILLE *      N/A     75  73  94 SE12      29.99S                  
MARSHALLTOWN   CLEAR     71  67  87 SE13      29.99S                  
NEWTON *       CLEAR     72  70  94 SE10      29.99S                  
PELLA *        CLEAR     74  68  82 SE7       30.01S                  
PERRY *        FAIR      73  69  86 S5        29.96S                  
$$
 
IAZ004>006-015-016-023>025-035-036-180600-
   NORTH CENTRAL IOWA
  
CITY           SKY/WX    TMP DP  RH WIND       PRES   REMARKS
ALGONA *       CLEAR     75  75 100 SE16G23   29.93S                  
CLARION *      CLEAR     73  72  94 SE13G18   29.96S                  
ESTHERVILLE    CLEAR     73  69  87 S16       29.91S                  
FORT DODGE *   CLEAR     76  72  87 S8        29.96R                  
MASON CITY     CLEAR     70  64  81 SE14      29.99S                  
FOREST CITY *  FAIR      70  68  94 SE9       29.98R                  
IOWA FALLS *     N/A     72  64  78 SE9       30.00S                  
$$

IAZ007>011-017>019-026>030-037>042-050>054-066-180600-
   NORTHEAST IOWA
  
CITY           SKY/WX    TMP DP  RH WIND       PRES   REMARKS
CEDAR RAPIDS   FAIR      69  68  96 SE8       30.03F                  
CHARLES CITY * FAIR      70  68  94 SE10      30.01S                  
CLINTON *      FAIR      69  66  90 SE9       30.08F                  
DECORAH *      FAIR      68  68 100 SE9G16    30.02S                  
DUBUQUE        FAIR      68  66  93 SE14      30.08F                  
MONTICELLO *   FAIR      68  68 100 SE7       30.06S                  
OELWEIN *      CLEAR     68  68 100 SE13      30.04S                  
WATERLOO       FAIR      73  67  81 SE13      30.00S                  
$$
 
IAZ064-065-067-068-078-180600-
   EAST CENTRAL IOWA
  
CITY           SKY/WX    TMP DP  RH WIND       PRES   REMARKS
DAVENPORT      FAIR      69  65  86 E10       30.08F                  
IOWA CITY      FAIR      71  67  87 E6        30.05S                  
MUSCATINE *    MOCLDY    70  68  94 SE5       30.05F                  
QUAD CITIES    FAIR      67  64  90 E8        30.06F                  
$$
 
IAZ062-063-075>077-085>089-095>099-180600-
   SOUTHEAST IOWA
  
CITY           SKY/WX    TMP DP  RH WIND       PRES   REMARKS
BURLINGTON     CLEAR     72  65  78 SE7       30.05S                  
FAIRFIELD *    CLEAR     72  70  94 SE8       30.03S                  
FORT MADISON * CLEAR     73  68  83 SE8       30.05S                  
KEOKUK *       CLEAR     72  70  94 SE8       30.04S                  
OSKALOOSA *    FAIR      71  66  86 SE9       30.02S                  
CENTERVILLE *  FAIR      73  73 100 SE8       30.03S                  
OTTUMWA        CLEAR     74  68  81 SE9       30.01S                  
WASHINGTON *     N/A    N/A N/A N/A MISG        N/A                   
$$

ABBREVIATIONS USED IN REMARKS
   TC - TEMPERATURES IN CELSIUS
  WCI - WIND CHILL INDEX
   HX - HEAT INDEX
  VSB - VISIBILITY  
$$